Flag for U.S.A. Weather past 2 weeks in Garland, Texas, U.S.A.

Now
84 °F

Sunny.


Feels Like: 90 °F
Forecast: 79 / 99 °F
Wind: 8 mph from South

Location: Mesquite Metro Airport

Current Time: Jul 29, 2015 at 11:13:42 AM

Latest Report: Jul 29, 2015 at 9:50 AM


Visibility: 10 mi

Pressure: 30.05 "Hg

Humidity: 66%

Dew point: 72 °F

Location of GarlandLocation

Historic Weather in Garland — Graph

°F

Garland temperature yesterday

Maximum temperature yesterday: 99 °F (at 4:50 PM)
Minimum temperature yesterday: 75 °F (at 6:50 AM)
Average temperature yesterday: 84 °F

Past Weeks' High & Low Weather Summary

 TemperatureHumidityPressure
High99 °F (Jul 18, 4:50 PM)94% (Jul 15, 5:55 AM)30.05 "Hg (Jul 15, 5:55 AM)
Low72 °F (Jul 15, 6:50 AM)27% (Jul 20, 5:50 PM)29.81 "Hg (Jul 14, 6:50 PM)
Average83 °F65%29.93 "Hg
* Reported Jul 14 9:50 AM — Jul 29 9:50 AM, Garland, Weather by CustomWeather, © 2015

Note: Actual official high and low records may vary slightly from our data, if they occured in-between our weather recording intervals... More about our weather records

Advertising

Garland weather history for previous 24 hours

 ConditionsComfort  
Time TempWeatherWind HumidityBarometerVisibility
9:50 AM
Wed, Jul 29
84 °FSunny.8 mph66%30.05 "Hg10 mi
8:55 AM82 °FSunny.9 mph70%30.05 "Hg10 mi
7:50 AM77 °FSunny.5 mph83%30.04 "Hg10 mi
6:50 AM73 °FClear.3 mph89%30.02 "Hg10 mi
6:15 AM74 °FClear.3 mph83%30.01 "Hg10 mi
5:55 AM75 °FClear.3 mph81%30.01 "Hg10 mi
5:15 AM74 °FClear.3 mph84%29.99 "Hg10 mi
4:55 AM76 °FClear.3 mph77%30.00 "Hg10 mi
4:15 AM75 °FClear.3 mph79%29.99 "Hg10 mi
3:55 AM76 °FClear.3 mph73%29.99 "Hg10 mi
3:15 AM77 °FClear.6 mph68%29.98 "Hg10 mi
2:35 AM76 °FClear.6 mph71%29.98 "Hg10 mi
2:15 AM77 °FClear.6 mph69%29.98 "Hg10 mi
1:55 AM78 °FClear.7 mph64%29.98 "Hg10 mi
1:15 AM79 °FClear.3 mph61%29.98 "Hg10 mi
12:55 AM79 °FClear.3 mph62%29.98 "Hg10 mi
12:35 AM80 °FClear.No wind60%29.97 "Hg10 mi
12:15 AM80 °FClear.3 mph60%29.97 "Hg10 mi
11:55 PM
Tue, Jul 28
80 °FClear.5 mph62%29.96 "Hg10 mi
11:35 PM82 °FClear.3 mph56%29.96 "Hg10 mi
10:55 PM83 °FClear.5 mph54%29.95 "Hg10 mi
9:55 PM85 °FClear.3 mph46%29.93 "Hg10 mi
9:35 PM87 °FClear.5 mph43%29.93 "Hg10 mi
9:15 PM88 °FSunny.6 mph41%29.92 "Hg10 mi
8:55 PM89 °FSunny.7 mph40%29.91 "Hg10 mi
8:35 PM90 °FSunny.7 mph38%29.91 "Hg10 mi
6:50 PM97 °FSunny.9 mph32%29.91 "Hg10 mi
5:50 PM97 °FSunny.10 mph30%29.92 "Hg10 mi
4:50 PM99 °FSunny.13 mph29%29.93 "Hg10 mi
3:50 PM97 °FSunny.9 mph30%29.94 "Hg10 mi
2:50 PM97 °FSunny.14 mph32%29.95 "Hg10 mi
1:50 PM95 °FSunny.12 mph34%29.96 "Hg10 mi
12:50 PM93 °FSunny.15 mph36%29.97 "Hg10 mi
11:50 AM91 °FSunny.17 mph41%29.97 "Hg10 mi
Weather by CustomWeather, © 2015

See weather overviewHow to use our weather pages